KC4WTI Weather Reports


time (UTC)temp
F
wind
direction
speed
knots
gust
knots
rain 1hr
in
rain 24hr
in
rain mn
in
humidity
%
barometer
mb
20260504221033 81 292 4.3 15.6 0.00 0.00 0.00 35 1009.2
20260504220532 81 200 4.3 11.3 0.00 0.00 0.00 36 1009.1
20260504220025 81 321 5.2 11.3 0.00 0.00 0.00 36 1009.1
20260504215750 81 306 5.2 12.2 0.00 0.00 0.00 35 1009.1
20260504215013 81 218 5.2 12.2 0.00 0.00 0.00 35 1009.1
20260504214739 81 212 5.2 13.0 0.00 0.00 0.00 36 1009.1
20260504214230 81 276 5.2 13.0 0.00 0.00 0.00 35 1009.1
20260504213456 81 290 5.2 13.0 0.00 0.00 0.00 35 1009.1
20260504212952 81 194 5.2 13.0 0.00 0.00 0.00 36 1009.1
20260504212453 81 351 4.3 13.0 0.00 0.00 0.00 35 1009.1
20260504211952 81 159 5.2 12.2 0.00 0.00 0.00 35 1009.1
20260504211452 81 253 7.0 12.2 0.00 0.00 0.00 35 1009.3
20260504210953 81 254 6.1 13.9 0.00 0.00 0.00 34 1009.3
20260504210452 81 188 5.2 13.9 0.00 0.00 0.00 34 1009.3
20260504205952 82 301 5.2 13.0 0.00 0.00 0.00 36 1009.4
20260504205713 82 217 4.3 13.9 0.00 0.00 0.00 36 1009.3
20260504204956 81 355 5.2 13.9 0.00 0.00 0.00 36 1009.3
20260504204822 81 213 5.2 14.8 0.00 0.00 0.00 36 1009.5
20260504204656 81 237 6.1 14.8 0.00 0.00 0.00 36 1009.5
20260504203211 82 273 5.2 13.0 0.00 0.00 0.00 35 1009.6
20260504202450 82 244 4.3 13.0 0.00 0.00 0.00 35 1009.8
20260504202213 82 233 4.3 13.0 0.00 0.00 0.00 35 1009.8
20260504201709 81 298 5.2 13.0 0.00 0.00 0.00 36 1009.9
20260504200939 81 250 5.2 13.0 0.00 0.00 0.00 35 1010.0
20260504200434 81 236 6.1 16.5 0.00 0.00 0.00 36 1010.1
20260504195927 81 205 6.1 16.5 0.00 0.00 0.00 36 1010.2
20260504195653 81 250 6.1 15.6 0.00 0.00 0.00 36 1010.2
20260504194918 82 198 5.2 13.9 0.00 0.00 0.00 35 1010.2
20260504194416 82 164 4.3 13.9 0.00 0.00 0.00 35 1010.5
20260504193915 82 171 4.3 11.3 0.00 0.00 0.00 38 1010.4
20260504193416 81 190 5.2 14.8 0.00 0.00 0.00 37 1010.5
20260504192946 81 254 6.1 13.9 0.00 0.00 0.00 36 1010.6
20260504192936 81 256 5.2 14.8 0.00 0.00 0.00 36 1010.5
20260504191914 81 178 6.1 13.9 0.00 0.00 0.00 36 1010.7
20260504191633 81 223 5.2 10.4 0.00 0.00 0.00 38 1010.7
20260504190914 81 259 5.2 11.3 0.00 0.00 0.00 38 1010.8
20260504190414 81 165 5.2 14.8 0.00 0.00 0.00 41 1010.9
20260504185915 81 160 5.2 14.8 0.00 0.00 0.00 39 1011.0
20260504185414 81 221 5.2 11.3 0.00 0.00 0.00 39 1011.1
20260504184914 80 280 5.2 15.6 0.00 0.00 0.00 40 1011.0
20260504184414 80 123 6.1 15.6 0.00 0.00 0.00 38 1011.1
20260504183916 80 286 6.1 15.6 0.00 0.00 0.00 41 1011.2
20260504183409 80 152 6.1 16.5 0.00 0.00 0.00 40 1011.2
20260504182903 80 254 6.1 16.5 0.00 0.00 0.00 39 1011.3
20260504182400 80 232 5.2 15.6 0.00 0.00 0.00 40 1011.4
20260504182139 79 306 6.1 15.6 0.00 0.00 0.00 38 1011.5
20260504181402 80 249 6.1 13.0 0.00 0.00 0.00 38 1011.6
20260504180900 80 279 6.1 12.2 0.00 0.00 0.00 40 1011.4
20260504180402 80 238 5.2 11.3 0.00 0.00 0.00 40 1011.6
20260504180127 81 274 4.3 12.2 0.00 0.00 0.00 39 1011.6
20260504175359 81 194 4.3 12.2 0.00 0.00 0.00 40 1011.7
20260504174900 80 169 4.3 15.6 0.00 0.00 0.00 41 1011.7
20260504174626 80 176 5.2 15.6 0.00 0.00 0.00 41 1011.8
20260504173901 79 190 5.2 12.2 0.00 0.00 0.00 40 1011.9
20260504173400 79 255 5.2 12.2 0.00 0.00 0.00 41 1012.0
20260504172900 78 194 5.2 13.0 0.00 0.00 0.00 41 1012.1
20260504172359 79 232 5.2 13.0 0.00 0.00 0.00 42 1012.2
20260504171901 79 271 6.1 13.0 0.00 0.00 0.00 44 1012.1
20260504171401 79 288 5.2 13.0 0.00 0.00 0.00 43 1012.3
20260504170855 79 261 4.3 11.3 0.00 0.00 0.00 45 1012.3
20260504170352 79 294 4.3 10.4 0.00 0.00 0.00 45 1012.4
20260504160348 77 236 5.2 15.6 0.00 0.00 0.00 49 1013.1
20260504151109 76 240 3.5 9.6 0.00 0.00 0.00 52 1013.4
20260504150826 75 246 3.5 8.7 0.00 0.00 0.00 51 1013.5
20260504140839 72 196 1.7 6.1 0.00 0.00 0.00 57 1013.6
20260504140334 71 318 2.6 6.1 0.00 0.00 0.00 59 1013.7
20260504130326 67 185 1.7 5.2 0.00 0.00 0.00 64 1013.3
20260504110303 59 159 0.9 3.5 0.00 0.00 0.00 73 1012.6
20260504100213 60 153 0.9 5.2 0.00 0.00 0.00 70 1012.8
20260504081633 59 138 0.9 1.7 0.00 0.00 0.00 67 1013.1
20260504081135 60 138 0.9 3.5 0.00 0.00 0.00 66 1013.1
20260504080632 60 202 0.9 3.5 0.00 0.00 0.00 66 1013.2
20260504080130 60 190 0.9 5.2 0.00 0.00 0.00 66 1013.2
20260504070120 60 214 0.9 4.3 0.00 0.00 0.00 64 1013.7
20260504045540 61 245 0.9 3.5 0.00 0.00 0.00 60 1014.6
20260504045038 61 216 0.9 4.3 0.00 0.00 0.00 60 1014.5
20260504044803 61 200 0.9 4.3 0.00 0.00 0.00 59 1014.6
20260504044037 61 271 0.9 3.5 0.00 0.00 0.00 59 1014.6
20260504043541 61 163 0.9 3.5 0.00 0.00 0.00 59 1014.7
20260504043035 61 189 0.9 3.5 0.00 0.00 0.00 59 1014.7
20260504042533 61 147 0.9 3.5 0.00 0.00 0.00 59 1014.7
20260504042034 61 169 1.7 4.3 0.00 0.00 0.00 58 1014.7
20260504041534 61 209 0.9 4.3 0.00 0.00 0.00 58 1014.7
20260504041032 61 185 0.9 2.6 0.00 0.00 0.00 58 1014.7
20260504040758 61 196 0.9 2.6 0.00 0.00 0.00 58 1014.7
20260504040031 61 180 0.9 3.5 0.00 0.00 0.00 58 1014.7
20260504035529 61 152 0.9 3.5 0.00 0.00 0.00 58 1014.7
20260504035031 61 183 1.7 3.5 0.00 0.00 0.00 58 1014.8
20260504034528 61 193 0.9 3.5 0.00 0.00 0.00 58 1014.7
20260504034027 61 181 0.9 3.5 0.00 0.00 0.00 58 1014.8
20260504033522 61 155 0.9 3.5 0.00 0.00 0.00 58 1014.9
20260504033016 61 131 0.9 3.5 0.00 0.00 0.00 58 1015.0
20260504032510 60 200 0.9 3.5 0.00 0.00 0.00 58 1015.0
20260504032226 60 173 0.9 3.5 0.00 0.00 0.00 58 1015.1
20260504031500 60 149 0.9 3.5 0.00 0.00 0.00 58 1015.2
20260504030959 60 176 0.0 2.6 0.00 0.00 0.00 58 1015.3
20260504030459 60 176 0.0 1.7 0.00 0.00 0.00 58 1015.3
20260504025959 60 176 0.0 0.9 0.00 0.00 0.00 57 1015.3
20260504025500 61 176 0.0 0.9 0.00 0.00 0.00 57 1015.3
20260504025000 61 176 0.0 0.9 0.00 0.00 0.00 58 1015.3
20260504024501 61 176 0.0 0.9 0.00 0.00 0.00 57 1015.2
20260504024000 61 176 0.0 0.9 0.00 0.00 0.00 57 1015.2
20260504023500 61 176 0.0 0.9 0.00 0.00 0.00 56 1015.3
20260504022957 61 176 0.0 0.9 0.00 0.00 0.00 57 1015.2
20260504022501 61 176 0.0 0.9 0.00 0.00 0.00 56 1015.1
20260504021957 62 176 0.0 0.9 0.00 0.00 0.00 55 1015.1
20260504021458 62 176 0.0 0.9 0.00 0.00 0.00 55 1015.1
20260504020957 62 176 0.0 0.9 0.00 0.00 0.00 55 1014.9
20260504020456 62 176 0.0 1.7 0.00 0.00 0.00 55 1014.9
20260504015957 63 176 0.0 1.7 0.00 0.00 0.00 55 1014.9
20260504015734 63 176 0.0 1.7 0.00 0.00 0.00 54 1014.8
20260504014958 63 176 0.9 0.9 0.00 0.00 0.00 53 1014.8
20260504014458 64 176 0.0 0.9 0.00 0.00 0.00 53 1014.8
20260504014220 64 176 0.0 0.9 0.00 0.00 0.00 51 1014.7
20260504013501 65 176 0.0 0.9 0.00 0.00 0.00 51 1014.8
20260504012959 65 176 0.0 0.9 0.00 0.00 0.00 49 1014.7
20260504012501 66 176 0.0 0.9 0.00 0.00 0.00 49 1014.7
20260504011957 66 176 0.0 0.9 0.00 0.00 0.00 48 1014.7
20260504011458 67 176 0.0 0.9 0.00 0.00 0.00 47 1014.7
20260504010956 67 176 0.0 0.9 0.00 0.00 0.00 46 1014.7
20260504010458 68 176 0.0 0.9 0.00 0.00 0.00 45 1014.7
20260504005956 68 176 0.9 1.7 0.00 0.00 0.00 44 1014.6
20260504005454 69 176 0.9 2.6 0.00 0.00 0.00 43 1014.6
20260504005447 69 176 0.9 2.6 0.00 0.00 0.00 43 1014.7
20260504004456 70 176 0.0 2.6 0.00 0.00 0.00 41 1014.7
20260504003952 70 140 0.9 2.6 0.00 0.00 0.00 40 1014.7
20260504003456 71 140 0.9 3.5 0.00 0.00 0.00 40 1014.6
20260504002953 71 179 0.9 3.5 0.00 0.00 0.00 39 1014.6
20260504002439 72 177 0.9 2.6 0.00 0.00 0.00 38 1014.7
20260504001933 72 204 0.9 3.5 0.00 0.00 0.00 38 1014.6
20260504001431 73 234 0.9 3.5 0.00 0.00 0.00 37 1014.7
20260504000927 73 157 1.7 6.1 0.00 0.00 0.00 36 1014.7
20260504000427 73 260 1.7 6.1 0.00 0.00 0.00 35 1014.7
20260503235927 74 206 1.7 4.3 0.00 0.00 0.00 35 1014.7
20260503235425 74 206 1.7 7.0 0.00 0.00 0.00 35 1014.8
20260503235150 74 250 1.7 7.0 0.00 0.00 0.00 34 1014.8
20260503234646 74 268 1.7 6.1 0.00 0.00 0.00 34 1014.8
20260503234144 74 261 2.6 8.7 0.00 0.00 0.00 34 1014.8
20260503233424 74 271 2.6 8.7 0.00 0.00 0.00 33 1014.8
20260503233141 75 274 2.6 6.1 0.00 0.00 0.00 33 1014.9
20260503232424 75 267 2.6 5.2 0.00 0.00 0.00 33 1015.0
20260503231922 75 240 1.7 6.1 0.00 0.00 0.00 32 1015.0
20260503231419 75 232 1.7 6.1 0.00 0.00 0.00 33 1015.1
20260503230919 75 185 1.7 6.1 0.00 0.00 0.00 32 1015.2
20260503230423 75 211 2.6 7.8 0.00 0.00 0.00 33 1015.2
20260503225919 75 225 2.6 7.8 0.00 0.00 0.00 32 1015.2
20260503225419 75 224 2.6 8.7 0.00 0.00 0.00 32 1015.2
20260503224920 75 152 3.5 7.8 0.00 0.00 0.00 32 1015.2
20260503224412 75 262 2.6 7.0 0.00 0.00 0.00 32 1015.3
20260503223906 75 261 2.6 7.8 0.00 0.00 0.00 32 1015.4
20260503223848 75 242 3.5 7.8 0.00 0.00 0.00 32 1015.4
20260503222905 75 205 3.5 7.0 0.00 0.00 0.00 32 1015.5
20260503222626 75 257 3.5 7.8 0.00 0.00 0.00 32 1015.5
20260503221905 76 165 3.5 7.8 0.00 0.00 0.00 32 1015.7